| time (UTC) | temp F | wind direction | speed MPH | gust MPH | rain 1hr in | rain 24hr in | rain mn in | humidity % | barometer mb |
| 20260504044527 | 41 | 0 | 0.0 | 0.0 | 0.04 | 0.15 | 0.15 | 94 | 1020.4 |
| 20260504043030 | 41 | 0 | 0.0 | 0.0 | 0.04 | 0.14 | 0.14 | 93 | 1020.5 |
| 20260504041531 | 41 | 0 | 0.0 | 0.0 | 0.05 | 0.14 | 0.14 | 93 | 1020.4 |
| 20260504040031 | 42 | 0 | 0.0 | 0.0 | 0.05 | 0.12 | 0.12 | 93 | 1020.3 |
| 20260504034534 | 42 | 0 | 0.0 | 0.0 | 0.05 | 0.11 | 0.11 | 92 | 1020.6 |
| 20260504033044 | 43 | 0 | 0.0 | 0.0 | 0.06 | 0.10 | 0.10 | 92 | 1020.7 |
| 20260504031531 | 43 | 0 | 0.0 | 0.0 | 0.06 | 0.09 | 0.09 | 91 | 1020.7 |
| 20260504030031 | 44 | 0 | 0.0 | 0.0 | 0.04 | 0.07 | 0.07 | 89 | 1020.8 |
| 20260504024541 | 44 | 0 | 0.0 | 0.0 | 0.04 | 0.06 | 0.06 | 89 | 1020.9 |
| 20260504023030 | 44 | 0 | 0.0 | 0.0 | 0.02 | 0.04 | 0.04 | 86 | 1020.9 |
| 20260504021530 | 44 | 0 | 0.0 | 0.0 | 0.02 | 0.03 | 0.03 | 86 | 1020.9 |
| 20260504020030 | 44 | 0 | 0.0 | 0.0 | 0.03 | 0.03 | 0.03 | 84 | 1021.0 |
| 20260504014530 | 45 | 0 | 0.0 | 0.0 | 0.02 | 0.02 | 0.02 | 83 | 1021.0 |
| 20260504013030 | 45 | 0 | 0.0 | 0.0 | 0.02 | 0.02 | 0.02 | 77 | 1021.1 |
| 20260504011530 | 45 | 0 | 0.0 | 0.0 | 0.01 | 0.01 | 0.01 | 79 | 1021.2 |
| 20260504010030 | 46 | 0 | 0.0 | 5.0 | 0.00 | 0.00 | 0.00 | 73 | 1021.2 |
| 20260504004541 | 48 | 0 | 0.0 | 3.0 | 0.00 | 0.00 | 0.00 | 66 | 1021.2 |
| 20260504003030 | 49 | 0 | 0.0 | 0.0 | 0.00 | 0.00 | 0.00 | 61 | 1021.3 |
| 20260504001529 | 49 | 0 | 0.0 | 0.0 | 0.00 | 0.00 | 0.00 | 62 | 1021.1 |
| 20260504000029 | 49 | 0 | 0.0 | 5.0 | 0.00 | 0.00 | 0.00 | 59 | 1021.2 |
| 20260503234530 | 49 | 0 | 0.0 | 5.0 | 0.00 | 0.00 | 0.00 | 59 | 1021.1 |
| 20260503233032 | 49 | 0 | 0.0 | 6.0 | 0.00 | 0.00 | 0.00 | 60 | 1021.3 |
| 20260503231527 | 49 | 0 | 0.0 | 7.0 | 0.00 | 0.00 | 0.00 | 60 | 1021.5 |
| 20260503230030 | 49 | 0 | 0.0 | 1.0 | 0.00 | 0.00 | 0.00 | 62 | 1021.4 |
| 20260503224531 | 48 | 341 | 0.0 | 3.0 | 0.00 | 0.00 | 0.00 | 63 | 1021.6 |
| 20260503223030 | 48 | 0 | 0.0 | 0.0 | 0.00 | 0.00 | 0.00 | 64 | 1021.8 |
| 20260503221528 | 48 | 360 | 0.0 | 4.0 | 0.00 | 0.00 | 0.00 | 63 | 1021.7 |
| 20260503220033 | 48 | 0 | 0.0 | 4.0 | 0.00 | 0.00 | 0.00 | 66 | 1022.1 |
| 20260503214529 | 49 | 0 | 0.0 | 0.0 | 0.00 | 0.00 | 0.00 | 64 | 1022.0 |
| 20260503213029 | 49 | 0 | 1.0 | 9.0 | 0.00 | 0.00 | 0.00 | 60 | 1022.1 |
| 20260503211536 | 49 | 260 | 1.0 | 11.0 | 0.00 | 0.00 | 0.00 | 59 | 1022.1 |
| 20260503210032 | 49 | 324 | 1.0 | 9.0 | 0.00 | 0.00 | 0.00 | 60 | 1022.1 |
| 20260503204531 | 49 | 0 | 0.0 | 0.0 | 0.00 | 0.00 | 0.00 | 59 | 1022.1 |
| 20260503203027 | 49 | 0 | 0.0 | 0.0 | 0.00 | 0.00 | 0.00 | 58 | 1022.3 |
| 20260503201530 | 48 | 277 | 0.0 | 9.0 | 0.00 | 0.00 | 0.00 | 59 | 1022.2 |
| 20260503200030 | 48 | 0 | 0.0 | 2.0 | 0.00 | 0.00 | 0.00 | 59 | 1022.2 |
| 20260503194535 | 48 | 0 | 1.0 | 4.0 | 0.00 | 0.00 | 0.00 | 60 | 1022.2 |
| 20260503193037 | 47 | 338 | 1.0 | 4.0 | 0.00 | 0.00 | 0.00 | 62 | 1022.4 |
| 20260503191530 | 46 | 286 | 1.0 | 4.0 | 0.00 | 0.00 | 0.00 | 64 | 1022.4 |
| 20260503190039 | 46 | 0 | 0.0 | 0.0 | 0.00 | 0.00 | 0.00 | 65 | 1022.5 |
| 20260503184529 | 45 | 0 | 0.0 | 0.0 | 0.00 | 0.00 | 0.00 | 66 | 1022.5 |
| 20260503183031 | 45 | 0 | 0.0 | 0.0 | 0.00 | 0.00 | 0.00 | 67 | 1022.5 |
| 20260503181533 | 44 | 0 | 0.0 | 0.0 | 0.00 | 0.00 | 0.00 | 68 | 1022.6 |
| 20260503180030 | 44 | 0 | 0.0 | 0.0 | 0.00 | 0.00 | 0.00 | 68 | 1022.4 |
| 20260503174541 | 44 | 0 | 0.0 | 0.0 | 0.00 | 0.00 | 0.00 | 69 | 1022.5 |
| 20260503173028 | 44 | 0 | 0.0 | 0.0 | 0.00 | 0.00 | 0.00 | 69 | 1022.4 |
| 20260503171530 | 43 | 0 | 0.0 | 0.0 | 0.00 | 0.00 | 0.00 | 69 | 1022.6 |
| 20260503081543 | 46 | 142 | 4.0 | 18.0 | 0.00 | 0.00 | 0.00 | 60 | 1022.5 |
| 20260503071539 | 46 | 0 | 1.0 | 20.0 | 0.00 | 0.00 | 0.00 | 59 | 1022.3 |